Regional Weather Roundup
Issued by NWS

Home | Current Version | Previous Version | Text Only | Print | Product List | Glossary Off
Versions: 1 2 3 4 5 6 7 8 9 10 11 12 13 14 15 16 17 18 19 20 21 22 23 24 25 26 27 28

000
ASUS45 KBOU 312007
RWRCO

WEATHER ROUNDUP FOR COLORADO
NATIONAL WEATHER SERVICE DENVER/BOULDER CO
200 PM MDT TUE MAY 31 2016

NOTE: "FAIR" INDICATES FEW OR NO CLOUDS BELOW 12000 FEET WITH NO
SIGNIFICANT WEATHER AND/OR OBSTRUCTIONS TO VISIBILITY.

COZ001>005-013-030-031-312100-
...NORTHWEST COLORADO...

CITY           SKY/WX    TMP DP  RH WIND       PRES   REMARKS
CRAIG          FAIR      69  33  26 VRB6      30.11F
HAYDEN         FAIR      66  28  24 W12       30.12S
MEEKER         FAIR      71  32  23 NW12      30.10F
MOUNT WERNER   NOT AVBL
STEAMBOAT SPGS FAIR      65  33  30 SW13G18   30.12S
WALDEN         NOT AVBL
$$

COZ006>008-011-312100-
...WEST CENTRAL VALLEYS...

CITY           SKY/WX    TMP DP  RH WIND       PRES   REMARKS
GRAND JUNCTION FAIR      78  30  17 VRB3      29.97F
MONTROSE       FAIR      77  28  16 N9        30.03F
EAGLE          MOSUNNY   72  27  18 NW6       30.06F
RIFLE          FAIR      77  33  20 VRB5      30.01F
DELTA          PTSUNNY   82  26  12 W12       29.98F
NUCLA          FAIR      79  25  13 W5G18     30.05F
$$

COZ017>023-064>068-312100-
...SOUTHWEST COLORADO...

CITY           SKY/WX    TMP DP  RH WIND       PRES   REMARKS
DURANGO        FAIR      76  19  11 MISG      30.03F
CORTEZ         FAIR      79  22  12 VRB3G17   30.01F
PAGOSA SPRINGS FAIR      73  12   9 SW5G20    30.10F
TELLURIDE      CLOUDY    64  21  19 W10       30.21S
WOLF CREEK PAS FAIR      46  19  34 SW8G24    30.39S
$$

COZ009-010-012-014-032>034-037-058>063-312100-
...CENTRAL COLORADO...

CITY           SKY/WX    TMP DP  RH WIND       PRES   REMARKS
ASPEN          PTSUNNY   64  30  27 N8G14     30.12S
BUENA VISTA    PTSUNNY   68  20  16 CALM      30.09F
COPPER MTN     NOT AVBL
BERTHOUD PASS  CLOUDY    37  28  70 NW17      30.38S
COTTONWOOD PAS FAIR      64   5   9 CALM      30.22F
GUNNISON       FAIR      70  27  19 SW13G20   30.12F
KREMMLING      FAIR      70  32  24 NW10      30.12F
LEADVILLE      FAIR      56  18  22 NW14G21   30.22F
MONARCH PASS   FAIR      46  19  34 W18G31    30.46S
SALIDA         FAIR      71  32  23 SE14G22   30.14F
SUNLIGHT       FAIR      54  28  37 CALM      30.33F
WILKERSON PASS PTSUNNY   55  23  28 SW3       30.33F
$$

COZ069>075-312100-
...SAN LUIS VALLEY/SANGRE DE CRISTO MOUNTAINS...

CITY           SKY/WX    TMP DP  RH WIND       PRES   REMARKS
ALAMOSA        FAIR      72  26  18 W5        30.08F
LA VETA PASS   PTSUNNY   54  43  66 NE10G17   30.27F
SAGUACHE       FAIR      70  30  23 CALM      30.10F
$$

COZ035-036-038>040-312100-
...NORTHERN COLORADO FRONT RANGE...

CITY           SKY/WX    TMP DP  RH WIND       PRES   REMARKS
DENVER INTL AP PTSUNNY   60  48  64 E13       30.09F
DMNS CITY PARK   N/A     66  48  53 E8G22     30.06S
AURORA         PTSUNNY   64  51  61 E12       30.08F
FRONT RANGE AP PTSUNNY   59  48  67 E15G25    30.09F
ERIE MUNI ARPT FAIR      66  46  47 NE5       30.07F
BOULDER MUN AP FAIR      64  43  45 CALM      30.08S
CENTENNIAL     PTSUNNY   66  47  50 N9        30.07F
BROOMFIELD     PTSUNNY   64  45  48 N6        30.09F
FORT COLLINS   FAIR      64  46  52 SE6       30.09F
LONGMONT       PTSUNNY   67  44  43 E6        30.10S
$$

COZ041-046-047-076>085-087-088-312100-
...PIKES PEAK/PALMER DIVIDE AND SOUTHERN FOOTHILLS...

CITY           SKY/WX    TMP DP  RH WIND       PRES   REMARKS
COLO. SPRINGS  FAIR      65  44  46 SE23      30.10F
A. F. ACADEMY  PTSUNNY   64  45  48 S21       30.08F
SCHRIEVER AFB  NOT AVBL
ELLICOTT       NOT AVBL
FALCON         PTSUNNY   64  43  46 SE14      30.14F
FORT CARSON    FAIR      67  47  48 S9G18     30.07F
LIMON          PTSUNNY   63  49  60 E8        30.09F
MONUMENT HILL  FAIR      61  45  55 S16G25    30.13F
TRINIDAD       FAIR      67  43  41 SE10      30.09F
$$

COZ042>045-048>051-090-091-312100-
...NORTHEAST COLORADO...

CITY           SKY/WX    TMP DP  RH WIND       PRES   REMARKS
GREELEY ARPT   PTSUNNY   64  46  52 SE13      30.09F
AKRON          FAIR      65  45  48 VRB6      30.08F
BURLINGTON     FAIR      69  45  41 MISG      30.06F
WRAY           NOT AVBL
STERLING       FAIR      63  45  51 E3        30.08F
HOLYOKE        FAIR      68  45  42 N6        30.08F
FORT MORGAN    CLOUDY    67  45  44 CALM      30.09F
$$

COZ086-089-092>099-312100-
...SOUTHEAST COLORADO...

CITY           SKY/WX    TMP DP  RH WIND       PRES   REMARKS
PUEBLO         FAIR      70  49  47 SE9G17    30.04F
LA JUNTA       FAIR      71  48  43 VRB3      30.03F
LAMAR          FAIR      74  52  46 NE10      30.00F
SPRINGFIELD      N/A     69  52  54 E5        30.03F
$$




USA.gov is the U.S. government's official web portal to all federal, state and local government web resources and services.